| time (UTC) | temp C | wind direction | speed KPH | gust KPH | rain 1hr cm | rain 24hr cm | rain mn cm | humidity % | barometer mb |
| 20260505070008 | 14 | 345 | 6.4 | 27.4 | 0.00 | 0.00 | 0.00 | 43 | 1008.7 |
| 20260505064504 | 14 | 360 | 19.3 | 29.0 | 0.00 | 0.00 | 0.00 | 42 | 1008.2 |
| 20260505063002 | 15 | 328 | 16.1 | 29.0 | 0.00 | 0.00 | 0.00 | 42 | 1006.9 |
| 20260505061601 | 15 | 335 | 17.7 | 41.8 | 0.00 | 0.00 | 0.00 | 40 | 1007.0 |
| 20260505060055 | 15 | 29 | 14.5 | 33.8 | 0.00 | 0.00 | 0.00 | 41 | 1006.7 |
| 20260505054552 | 16 | 76 | 19.3 | 37.0 | 0.00 | 0.00 | 0.00 | 39 | 1006.6 |
| 20260505053047 | 17 | 353 | 17.7 | 35.4 | 0.00 | 0.00 | 0.00 | 39 | 1006.6 |
| 20260505051544 | 18 | 340 | 16.1 | 29.0 | 0.00 | 0.00 | 0.00 | 39 | 1006.2 |
| 20260505041537 | 20 | 17 | 11.3 | 30.6 | 0.00 | 0.00 | 0.00 | 38 | 1004.4 |
| 20260505040037 | 21 | 345 | 9.7 | 17.7 | 0.00 | 0.00 | 0.00 | 38 | 1004.3 |
| 20260505034541 | 21 | 14 | 11.3 | 16.1 | 0.00 | 0.00 | 0.00 | 38 | 1004.2 |
| 20260505033034 | 22 | 340 | 11.3 | 20.9 | 0.00 | 0.00 | 0.00 | 39 | 1003.9 |
| 20260505031534 | 22 | 34 | 12.9 | 22.5 | 0.00 | 0.00 | 0.00 | 45 | 1003.5 |
| 20260505030044 | 22 | 133 | 0.0 | 6.4 | 0.00 | 0.00 | 0.00 | 57 | 1003.2 |
| 20260505024532 | 22 | 356 | 4.8 | 16.1 | 0.00 | 0.00 | 0.00 | 57 | 1002.6 |
| 20260505023041 | 22 | 170 | 0.0 | 1.6 | 0.00 | 0.00 | 0.00 | 56 | 1002.0 |
| 20260505021532 | 23 | 170 | 0.0 | 0.0 | 0.00 | 0.00 | 0.00 | 53 | 1001.8 |
| 20260505020031 | 24 | 170 | 0.0 | 4.8 | 0.00 | 0.00 | 0.00 | 50 | 1001.5 |
| 20260505014537 | 24 | 237 | 0.0 | 8.0 | 0.00 | 0.00 | 0.00 | 49 | 1001.3 |
| 20260505013035 | 25 | 213 | 3.2 | 8.0 | 0.00 | 0.00 | 0.00 | 47 | 1001.2 |
| 20260505011530 | 25 | 164 | 1.6 | 8.0 | 0.00 | 0.00 | 0.00 | 46 | 1001.0 |
| 20260505010029 | 25 | 219 | 4.8 | 11.3 | 0.00 | 0.00 | 0.00 | 45 | 1000.9 |
| 20260505004552 | 26 | 211 | 6.4 | 12.9 | 0.00 | 0.00 | 0.00 | 44 | 1000.7 |
| 20260505003028 | 26 | 209 | 6.4 | 14.5 | 0.00 | 0.00 | 0.00 | 43 | 1000.6 |
| 20260505001530 | 26 | 168 | 8.0 | 12.9 | 0.00 | 0.00 | 0.00 | 43 | 1000.6 |
| 20260505000028 | 27 | 217 | 4.8 | 12.9 | 0.00 | 0.00 | 0.00 | 44 | 1000.8 |
| 20260504234528 | 27 | 182 | 3.2 | 11.3 | 0.00 | 0.00 | 0.00 | 44 | 1000.7 |
| 20260504233026 | 27 | 147 | 8.0 | 17.7 | 0.00 | 0.00 | 0.00 | 43 | 1000.7 |
| 20260504231526 | 27 | 186 | 12.9 | 19.3 | 0.00 | 0.00 | 0.00 | 42 | 1000.7 |
| 20260504230025 | 27 | 195 | 14.5 | 22.5 | 0.00 | 0.00 | 0.00 | 41 | 1000.7 |
| 20260504224532 | 27 | 212 | 11.3 | 27.4 | 0.00 | 0.00 | 0.00 | 40 | 1000.5 |
| 20260504223025 | 27 | 212 | 9.7 | 25.7 | 0.00 | 0.00 | 0.00 | 37 | 1000.5 |
| 20260504221532 | 28 | 224 | 11.3 | 29.0 | 0.00 | 0.00 | 0.00 | 36 | 1000.5 |
| 20260504220022 | 28 | 178 | 12.9 | 27.4 | 0.00 | 0.00 | 0.00 | 37 | 1000.6 |
| 20260504214520 | 27 | 162 | 14.5 | 25.7 | 0.00 | 0.00 | 0.00 | 38 | 1000.8 |
| 20260504213032 | 28 | 188 | 12.9 | 22.5 | 0.00 | 0.00 | 0.00 | 37 | 1000.9 |
| 20260504211518 | 27 | 216 | 12.9 | 25.7 | 0.00 | 0.00 | 0.00 | 37 | 1001.0 |
| 20260504210018 | 27 | 225 | 12.9 | 32.2 | 0.00 | 0.00 | 0.00 | 38 | 1001.1 |
| 20260504204515 | 27 | 207 | 9.7 | 22.5 | 0.00 | 0.00 | 0.00 | 38 | 1001.2 |
| 20260504203014 | 27 | 222 | 9.7 | 24.1 | 0.00 | 0.00 | 0.00 | 38 | 1001.2 |
| 20260504201512 | 27 | 205 | 19.3 | 30.6 | 0.00 | 0.00 | 0.00 | 39 | 1001.5 |
| 20260504200011 | 27 | 185 | 11.3 | 19.3 | 0.00 | 0.00 | 0.00 | 39 | 1001.5 |
| 20260504194515 | 27 | 249 | 11.3 | 22.5 | 0.00 | 0.00 | 0.00 | 40 | 1001.7 |
| 20260504193010 | 27 | 207 | 6.4 | 22.5 | 0.00 | 0.00 | 0.00 | 41 | 1001.7 |
| 20260504191505 | 26 | 189 | 12.9 | 24.1 | 0.00 | 0.00 | 0.00 | 43 | 1001.7 |
| 20260504190003 | 26 | 211 | 16.1 | 25.7 | 0.00 | 0.00 | 0.00 | 43 | 1001.8 |
| 20260504184508 | 26 | 139 | 12.9 | 19.3 | 0.00 | 0.00 | 0.00 | 43 | 1001.8 |
| 20260504183100 | 26 | 199 | 12.9 | 27.4 | 0.00 | 0.00 | 0.00 | 43 | 1001.9 |
| 20260504181602 | 25 | 190 | 9.7 | 27.4 | 0.00 | 0.00 | 0.00 | 45 | 1001.9 |
| 20260504180056 | 25 | 196 | 14.5 | 22.5 | 0.00 | 0.00 | 0.00 | 44 | 1002.2 |
| 20260504174554 | 25 | 207 | 12.9 | 25.7 | 0.00 | 0.00 | 0.00 | 44 | 1002.1 |
| 20260504173051 | 25 | 196 | 14.5 | 20.9 | 0.00 | 0.00 | 0.00 | 45 | 1002.3 |
| 20260504171549 | 24 | 164 | 8.0 | 20.9 | 0.00 | 0.00 | 0.00 | 47 | 1002.4 |
| 20260504081545 | 17 | 71 | 0.0 | 3.2 | 0.00 | 0.00 | 0.00 | 57 | 1005.1 |